PGT52CP UGTB-LTFJ

Flight info

Callsign PGT52CP
Flight time 1h 54m
Altitude 36000
Route N0447F360 ZAGOT DCT NOLGA UN61 TBN UW71 CRM DCT DEREL UT79 NAMAN
Aircraft A320/M-SDFGHIJ1LORVWY/LB1

Departure

Time 2026-04-26 15:31
Airport Tbilisi International Airport (UGTB)

Arrival

Time 2026-04-26 17:25
Airport Istanbul Sabiha Gökçen International Airport (LTFJ)
Time Latitude Longitude Altitude Speed Heading
2026-04-26 15:01 41.66863 44.96395 1527 ft 0 kts 44°
2026-04-26 15:23 41.66853 44.96383 1521 ft 4 kts 46°
2026-04-26 15:23 41.66836 44.96356 1520 ft 4 kts 54°
2026-04-26 15:23 41.66822 44.96325 1526 ft 4 kts 73°
2026-04-26 15:23 41.66821 44.96293 1526 ft 4 kts 126°
2026-04-26 15:24 41.66824 44.96288 1526 ft 0 kts 133°
2026-04-26 15:25 41.66816 44.96299 1526 ft 3 kts 134°
2026-04-26 15:26 41.66799 44.96323 1526 ft 4 kts 134°
2026-04-26 15:26 41.66775 44.96356 1526 ft 6 kts 133°
2026-04-26 15:26 41.66747 44.96396 1520 ft 6 kts 133°
2026-04-26 15:26 41.66707 44.96427 1521 ft 7 kts 164°
2026-04-26 15:27 41.66655 44.96421 1524 ft 8 kts 195°
2026-04-26 15:27 41.66602 44.96403 1523 ft 7 kts 193°
2026-04-26 15:27 41.66553 44.96389 1524 ft 7 kts 193°
2026-04-26 15:27 41.66514 44.96376 1527 ft 5 kts 193°
2026-04-26 15:28 41.66458 44.96358 1527 ft 11 kts 194°
2026-04-26 15:28 41.66367 44.96328 1521 ft 15 kts 194°
2026-04-26 15:28 41.66263 44.96298 1521 ft 16 kts 183°
2026-04-26 15:28 41.66154 44.96332 1522 ft 17 kts 153°
2026-04-26 15:29 41.66077 44.96424 1521 ft 15 kts 139°
2026-04-26 15:29 41.65999 44.96520 1523 ft 16 kts 135°
2026-04-26 15:29 41.65843 44.96527 1525 ft 14 kts 256°
2026-04-26 15:30 41.66011 44.96248 1522 ft 65 kts 317°
2026-04-26 15:30 41.66542 44.95580 1523 ft 142 kts 316°
2026-04-26 15:30 41.67386 44.94530 1866 ft 174 kts 316°
2026-04-26 15:31 41.68264 44.93439 2753 ft 175 kts 316°
2026-04-26 15:31 41.70034 44.91232 4102 ft 174 kts 316°
2026-04-26 15:31 41.70918 44.90133 4710 ft 173 kts 317°
2026-04-26 15:32 41.72444 44.88101 5189 ft 204 kts 310°
2026-04-26 15:32 41.73746 44.85997 5435 ft 236 kts 309°
2026-04-26 15:32 41.74832 44.84194 5757 ft 261 kts 308°
2026-04-26 15:33 41.76010 44.82238 6305 ft 276 kts 308°
2026-04-26 15:33 41.77208 44.80256 7050 ft 279 kts 308°
2026-04-26 15:33 41.78437 44.78235 7863 ft 281 kts 308°
2026-04-26 15:33 41.79679 44.76199 8699 ft 283 kts 307°
2026-04-26 15:34 41.80930 44.74152 9538 ft 286 kts 307°
2026-04-26 15:34 41.82198 44.72079 10208 ft 294 kts 307°
2026-04-26 15:34 41.83543 44.69872 10423 ft 317 kts 307°
2026-04-26 15:34 41.84972 44.67527 10882 ft 328 kts 307°
2026-04-26 15:35 41.86410 44.65172 11551 ft 333 kts 307°
2026-04-26 15:35 41.87885 44.62758 12264 ft 336 kts 307°
2026-04-26 15:35 41.89230 44.60190 12968 ft 337 kts 295°
2026-04-26 15:35 41.90051 44.57259 13680 ft 336 kts 281°
2026-04-26 15:36 41.90288 44.54142 14317 ft 337 kts 267°
2026-04-26 15:36 41.89931 44.51035 14922 ft 339 kts 253°
2026-04-26 15:36 41.89090 44.48073 15523 ft 340 kts 248°
2026-04-26 15:36 41.88186 44.45124 16108 ft 343 kts 248°
2026-04-26 15:37 41.87285 44.42188 16688 ft 346 kts 247°
2026-04-26 15:37 41.86362 44.39193 17283 ft 348 kts 247°
2026-04-26 15:37 41.85431 44.36180 17851 ft 352 kts 247°
2026-04-26 15:37 41.84495 44.33131 18433 ft 355 kts 247°
2026-04-26 15:38 41.83554 44.30061 18954 ft 357 kts 247°
2026-04-26 15:38 41.82611 44.26970 19484 ft 361 kts 247°
2026-04-26 15:38 41.81658 44.23846 19998 ft 363 kts 247°
2026-04-26 15:38 41.80704 44.20750 20473 ft 366 kts 247°
2026-04-26 15:39 41.79722 44.17590 20952 ft 368 kts 247°
2026-04-26 15:39 41.78733 44.14410 21460 ft 371 kts 247°
2026-04-26 15:39 41.77745 44.11221 21938 ft 372 kts 247°
2026-04-26 15:39 41.77094 44.09090 22240 ft 373 kts 248°
2026-04-26 15:40 41.75793 44.04764 22836 ft 376 kts 248°
2026-04-26 15:40 41.74815 44.01496 23234 ft 379 kts 248°
2026-04-26 15:40 41.73828 43.98206 23683 ft 382 kts 248°
2026-04-26 15:40 41.72843 43.94948 24073 ft 383 kts 248°
2026-04-26 15:41 41.71836 43.91642 24470 ft 385 kts 247°
2026-04-26 15:41 41.70823 43.88320 24860 ft 386 kts 247°
2026-04-26 15:41 41.69809 43.84986 25258 ft 387 kts 247°
2026-04-26 15:41 41.68792 43.81650 25652 ft 388 kts 247°
2026-04-26 15:42 41.67765 43.78297 26016 ft 390 kts 247°
2026-04-26 15:42 41.66738 43.74938 26368 ft 391 kts 246°
2026-04-26 15:42 41.65719 43.71614 26734 ft 392 kts 246°
2026-04-26 15:42 41.64683 43.68234 27093 ft 394 kts 246°
2026-04-26 15:43 41.63640 43.64833 27418 ft 396 kts 246°
2026-04-26 15:43 41.62589 43.61412 27763 ft 398 kts 246°
2026-04-26 15:43 41.60470 43.54532 28466 ft 402 kts 246°
2026-04-26 15:44 41.59402 43.51078 28815 ft 403 kts 246°
2026-04-26 15:44 41.57267 43.44185 29481 ft 405 kts 245°
2026-04-26 15:44 41.56183 43.40700 29793 ft 407 kts 245°
2026-04-26 15:45 41.54014 43.33681 30290 ft 412 kts 246°
2026-04-26 15:45 41.52915 43.30140 30531 ft 414 kts 245°
2026-04-26 15:46 41.50699 43.23038 31034 ft 415 kts 246°
2026-04-26 15:46 41.49587 43.19477 31287 ft 416 kts 246°
2026-04-26 15:46 41.48488 43.15975 31666 ft 414 kts 246°
2026-04-26 15:46 41.47740 43.13589 31911 ft 412 kts 246°
2026-04-26 15:47 41.46280 43.08936 32393 ft 410 kts 246°
2026-04-26 15:47 41.44084 43.01939 33021 ft 409 kts 246°
2026-04-26 15:47 41.43050 42.98423 33399 ft 408 kts 251°
2026-04-26 15:48 41.42415 42.94744 33805 ft 407 kts 258°
2026-04-26 15:48 41.41975 42.91084 34157 ft 404 kts 258°
2026-04-26 15:48 41.41531 42.87392 34434 ft 404 kts 258°
2026-04-26 15:48 41.41082 42.83692 34664 ft 405 kts 259°
2026-04-26 15:49 41.40635 42.79992 34879 ft 406 kts 258°
2026-04-26 15:49 41.40182 42.76302 35038 ft 406 kts 259°
2026-04-26 15:49 41.39731 42.72568 35259 ft 409 kts 259°
2026-04-26 15:49 41.39273 42.68828 35522 ft 410 kts 259°
2026-04-26 15:50 41.38816 42.65093 35736 ft 407 kts 259°
2026-04-26 15:50 41.38361 42.61417 35885 ft 408 kts 259°
2026-04-26 15:50 41.37896 42.57698 36017 ft 409 kts 259°
2026-04-26 15:51 41.36960 42.50238 36046 ft 408 kts 259°
2026-04-26 15:51 41.36023 42.42786 36051 ft 408 kts 259°
2026-04-26 15:52 41.35094 42.35383 36053 ft 408 kts 259°
2026-04-26 15:52 41.34151 42.27946 36048 ft 409 kts 259°
2026-04-26 15:53 41.33198 42.20495 36046 ft 408 kts 259°
2026-04-26 15:53 41.32251 42.13058 36027 ft 407 kts 259°
2026-04-26 15:54 41.31300 42.05635 36014 ft 408 kts 258°
2026-04-26 15:54 41.30337 41.98240 36021 ft 409 kts 258°
2026-04-26 15:55 41.29342 41.90748 36014 ft 412 kts 258°
2026-04-26 15:55 41.28353 41.83242 36030 ft 412 kts 259°
2026-04-26 15:56 41.27379 41.75800 36031 ft 411 kts 259°
2026-04-26 15:56 41.26396 41.68328 36024 ft 410 kts 259°
2026-04-26 15:57 41.25408 41.60878 36008 ft 409 kts 258°
2026-04-26 15:57 41.24397 41.53423 35997 ft 413 kts 258°
2026-04-26 15:58 41.23381 41.45994 35991 ft 411 kts 258°
2026-04-26 15:58 41.22365 41.38517 35978 ft 412 kts 258°
2026-04-26 15:59 41.21346 41.31031 35987 ft 412 kts 258°
2026-04-26 15:59 41.20316 41.23543 35978 ft 412 kts 258°
2026-04-26 16:00 41.19281 41.16063 35962 ft 412 kts 258°
2026-04-26 16:00 41.18253 41.08632 35942 ft 412 kts 258°
2026-04-26 16:01 41.17210 41.01163 35930 ft 412 kts 258°
2026-04-26 16:01 41.16161 40.93693 35925 ft 411 kts 258°
2026-04-26 16:02 41.15115 40.86236 35920 ft 411 kts 258°
2026-04-26 16:02 41.14068 40.78820 35921 ft 412 kts 258°
2026-04-26 16:03 41.13006 40.71352 35916 ft 412 kts 258°
2026-04-26 16:03 41.11933 40.63881 35917 ft 413 kts 258°
2026-04-26 16:04 41.10856 40.56397 35917 ft 414 kts 258°
2026-04-26 16:04 41.09784 40.48945 35921 ft 414 kts 258°
2026-04-26 16:05 41.08691 40.41438 35921 ft 415 kts 258°
2026-04-26 16:05 41.07595 40.33936 35924 ft 415 kts 258°
2026-04-26 16:06 41.06500 40.26427 35940 ft 415 kts 258°
2026-04-26 16:06 41.05404 40.18966 35938 ft 415 kts 258°
2026-04-26 16:07 41.04299 40.11465 35950 ft 415 kts 258°
2026-04-26 16:07 41.03193 40.03963 35950 ft 415 kts 258°
2026-04-26 16:08 41.02073 39.96457 35941 ft 416 kts 257°
2026-04-26 16:08 41.00946 39.88993 35938 ft 416 kts 257°
2026-04-26 16:09 40.99872 39.81445 35934 ft 418 kts 263°
2026-04-26 16:09 41.00091 39.73753 35936 ft 421 kts 275°
2026-04-26 16:10 41.01576 39.58361 35956 ft 422 kts 275°
2026-04-26 16:11 41.02299 39.50662 35956 ft 421 kts 275°
2026-04-26 16:11 41.03019 39.42966 35957 ft 421 kts 275°
2026-04-26 16:12 41.04791 39.23973 35960 ft 422 kts 275°
2026-04-26 16:13 41.05497 39.16260 35960 ft 422 kts 275°
2026-04-26 16:13 41.06204 39.08540 35967 ft 421 kts 275°
2026-04-26 16:14 41.06917 39.00832 35963 ft 422 kts 275°
2026-04-26 16:15 41.07976 38.89322 35962 ft 421 kts 275°
2026-04-26 16:15 41.08669 38.81611 35963 ft 422 kts 275°
2026-04-26 16:16 41.09717 38.70029 35955 ft 422 kts 275°
2026-04-26 16:16 41.10386 38.62355 35957 ft 423 kts 275°
2026-04-26 16:17 41.11042 38.54605 35961 ft 423 kts 275°
2026-04-26 16:17 41.11683 38.46868 35966 ft 422 kts 275°
2026-04-26 16:18 41.12640 38.35310 35957 ft 422 kts 275°
2026-04-26 16:19 41.13600 38.23689 35960 ft 423 kts 275°
2026-04-26 16:20 41.14551 38.12058 35957 ft 423 kts 275°
2026-04-26 16:20 41.15486 38.00463 35945 ft 424 kts 275°
2026-04-26 16:21 41.16102 37.92686 35948 ft 424 kts 275°
2026-04-26 16:21 41.16724 37.84899 35949 ft 424 kts 275°
2026-04-26 16:22 41.17393 37.77118 35954 ft 425 kts 275°
2026-04-26 16:22 41.18060 37.69372 35964 ft 425 kts 275°
2026-04-26 16:23 41.18718 37.61553 35970 ft 426 kts 275°
2026-04-26 16:23 41.19191 37.53718 35971 ft 426 kts 273°
2026-04-26 16:24 41.19675 37.45885 35973 ft 426 kts 274°
2026-04-26 16:24 41.20260 37.38114 35973 ft 426 kts 275°
2026-04-26 16:25 41.20868 37.30287 35968 ft 426 kts 275°
2026-04-26 16:25 41.21458 37.22446 35965 ft 427 kts 274°
2026-04-26 16:26 41.21948 37.15924 35975 ft 427 kts 275°
2026-04-26 16:26 41.22654 37.06801 35976 ft 427 kts 275°
2026-04-26 16:27 41.23265 36.98945 35980 ft 428 kts 275°
2026-04-26 16:27 41.23869 36.91074 35977 ft 428 kts 275°
2026-04-26 16:28 41.24463 36.83254 35973 ft 428 kts 275°
2026-04-26 16:28 41.25049 36.75374 35964 ft 429 kts 275°
2026-04-26 16:29 41.25633 36.67492 35961 ft 429 kts 275°
2026-04-26 16:29 41.26206 36.59597 35963 ft 429 kts 275°
2026-04-26 16:30 41.26210 36.51740 35971 ft 429 kts 262°
2026-04-26 16:30 41.25352 36.43893 35969 ft 430 kts 262°
2026-04-26 16:31 41.24512 36.36025 35974 ft 430 kts 262°
2026-04-26 16:31 41.23665 36.28155 35976 ft 430 kts 262°
2026-04-26 16:32 41.22954 36.21612 35970 ft 430 kts 262°
2026-04-26 16:32 41.21948 36.12467 35967 ft 431 kts 262°
2026-04-26 16:33 41.21069 36.04598 35962 ft 431 kts 262°
2026-04-26 16:33 41.20182 35.96731 35962 ft 431 kts 262°
2026-04-26 16:34 41.19305 35.88925 35957 ft 430 kts 262°
2026-04-26 16:34 41.18419 35.81065 35944 ft 430 kts 262°
2026-04-26 16:35 41.17526 35.73207 35931 ft 431 kts 262°
2026-04-26 16:35 41.16624 35.65337 35934 ft 431 kts 262°
2026-04-26 16:36 41.15722 35.57528 35923 ft 431 kts 262°
2026-04-26 16:36 41.14809 35.49671 35912 ft 431 kts 262°
2026-04-26 16:37 41.13897 35.41818 35914 ft 431 kts 262°
2026-04-26 16:37 41.12977 35.33967 35913 ft 431 kts 262°
2026-04-26 16:38 41.12060 35.26171 35912 ft 431 kts 262°
2026-04-26 16:38 41.11126 35.18323 35913 ft 431 kts 262°
2026-04-26 16:39 41.10183 35.10472 35914 ft 431 kts 262°
2026-04-26 16:39 41.09232 35.02621 35918 ft 432 kts 262°
2026-04-26 16:40 41.08290 34.94831 35917 ft 431 kts 262°
2026-04-26 16:40 41.07339 34.86988 35918 ft 432 kts 262°
2026-04-26 16:41 41.06377 34.79140 35925 ft 431 kts 262°
2026-04-26 16:41 41.05410 34.71299 35925 ft 431 kts 261°
2026-04-26 16:42 41.04445 34.63508 35931 ft 431 kts 262°
2026-04-26 16:42 41.03471 34.55667 35931 ft 431 kts 262°
2026-04-26 16:43 41.02495 34.47834 35936 ft 431 kts 262°
2026-04-26 16:43 41.01508 34.39998 35937 ft 431 kts 262°
2026-04-26 16:44 41.00516 34.32214 35944 ft 432 kts 262°
2026-04-26 16:44 40.99518 34.24378 35955 ft 432 kts 261°
2026-04-26 16:45 40.98512 34.16539 35965 ft 432 kts 262°
2026-04-26 16:45 40.97498 34.08708 35972 ft 431 kts 262°
2026-04-26 16:46 40.96495 34.00940 35967 ft 431 kts 262°
2026-04-26 16:46 40.95478 33.93125 35965 ft 431 kts 262°
2026-04-26 16:47 40.94458 33.85309 35976 ft 431 kts 262°
2026-04-26 16:47 40.93434 33.77497 35978 ft 431 kts 261°
2026-04-26 16:48 40.92402 33.69747 35992 ft 431 kts 262°
2026-04-26 16:48 40.91360 33.61951 35985 ft 431 kts 262°
2026-04-26 16:49 40.90325 33.54154 35983 ft 431 kts 262°
2026-04-26 16:49 40.89277 33.46356 35999 ft 431 kts 261°
2026-04-26 16:50 40.88225 33.38610 36002 ft 431 kts 261°
2026-04-26 16:50 40.87158 33.30815 36013 ft 431 kts 261°
2026-04-26 16:51 40.86089 33.23027 36007 ft 431 kts 261°
2026-04-26 16:51 40.85023 33.15235 36010 ft 430 kts 261°
2026-04-26 16:52 40.84137 33.08776 36020 ft 430 kts 261°
2026-04-26 16:52 40.82890 32.99749 36020 ft 430 kts 261°
2026-04-26 16:53 40.81808 32.91995 36023 ft 430 kts 261°
2026-04-26 16:53 40.80721 32.84299 36021 ft 429 kts 261°
2026-04-26 16:54 40.79627 32.76552 36011 ft 430 kts 261°
2026-04-26 16:54 40.78531 32.68798 36017 ft 430 kts 261°
2026-04-26 16:55 40.77426 32.61056 36020 ft 429 kts 261°
2026-04-26 16:55 40.76325 32.53379 36022 ft 429 kts 261°
2026-04-26 16:56 40.74658 32.41785 36016 ft 429 kts 261°
2026-04-26 16:57 40.73537 32.34050 35936 ft 434 kts 261°
2026-04-26 16:57 40.72964 32.30106 35680 ft 441 kts 261°
2026-04-26 16:57 40.72003 32.22175 35177 ft 439 kts 270°
2026-04-26 16:58 40.72101 32.18180 34932 ft 434 kts 279°
2026-04-26 16:58 40.72444 32.15538 34772 ft 432 kts 285°
2026-04-26 16:58 40.74541 32.06828 34217 ft 427 kts 289°
2026-04-26 16:59 40.75468 32.03109 33971 ft 426 kts 289°
2026-04-26 16:59 40.77300 31.95710 33422 ft 422 kts 289°
2026-04-26 17:00 40.79096 31.88433 32888 ft 417 kts 289°
2026-04-26 17:00 40.80883 31.81197 32359 ft 413 kts 289°
2026-04-26 17:00 40.81771 31.77608 32099 ft 411 kts 289°
2026-04-26 17:01 40.82657 31.74025 31833 ft 409 kts 289°
2026-04-26 17:01 40.83535 31.70475 31329 ft 405 kts 289°
2026-04-26 17:01 40.84404 31.66954 30792 ft 402 kts 289°
2026-04-26 17:01 40.85255 31.63500 30281 ft 400 kts 289°
2026-04-26 17:02 40.86110 31.60021 29710 ft 397 kts 289°
2026-04-26 17:02 40.86953 31.56569 29190 ft 392 kts 289°
2026-04-26 17:02 40.87785 31.53160 28679 ft 388 kts 288°
2026-04-26 17:02 40.88605 31.49785 28171 ft 383 kts 288°
2026-04-26 17:03 40.89412 31.46449 27696 ft 379 kts 288°
2026-04-26 17:03 40.90210 31.43152 27217 ft 375 kts 288°
2026-04-26 17:03 40.90983 31.39926 26758 ft 372 kts 288°
2026-04-26 17:03 40.91729 31.36672 26304 ft 368 kts 287°
2026-04-26 17:04 40.92450 31.33445 25845 ft 364 kts 287°
2026-04-26 17:04 40.93159 31.30237 25406 ft 361 kts 287°
2026-04-26 17:04 40.93859 31.27063 24962 ft 358 kts 287°
2026-04-26 17:04 40.94555 31.23916 24535 ft 355 kts 287°
2026-04-26 17:05 40.95250 31.20789 24100 ft 353 kts 287°
2026-04-26 17:05 40.95932 31.17727 23651 ft 351 kts 287°
2026-04-26 17:05 40.96623 31.14639 23160 ft 349 kts 287°
2026-04-26 17:05 40.97322 31.11552 22704 ft 353 kts 287°
2026-04-26 17:06 40.98021 31.08430 22246 ft 354 kts 287°
2026-04-26 17:06 40.98705 31.05311 21783 ft 352 kts 287°
2026-04-26 17:06 40.99386 31.02203 21303 ft 350 kts 287°
2026-04-26 17:06 41.00063 30.99118 20876 ft 347 kts 287°
2026-04-26 17:07 41.00712 30.96094 20477 ft 345 kts 286°
2026-04-26 17:07 41.01351 30.93043 20082 ft 343 kts 286°
2026-04-26 17:07 41.01979 30.90003 19682 ft 341 kts 286°
2026-04-26 17:07 41.02600 30.86984 19284 ft 339 kts 286°
2026-04-26 17:08 41.03218 30.83981 18904 ft 337 kts 286°
2026-04-26 17:08 41.03835 30.80993 18511 ft 335 kts 286°
2026-04-26 17:08 41.04451 30.78021 18109 ft 334 kts 286°
2026-04-26 17:08 41.05051 30.75076 17831 ft 327 kts 283°
2026-04-26 17:09 41.05265 30.72166 17661 ft 319 kts 269°
2026-04-26 17:09 41.05095 30.70200 17484 ft 317 kts 259°
2026-04-26 17:09 41.04105 30.66578 17132 ft 316 kts 248°
2026-04-26 17:09 41.03214 30.63925 16817 ft 315 kts 249°
2026-04-26 17:10 41.02431 30.61193 16504 ft 323 kts 257°
2026-04-26 17:10 41.01916 30.58279 16201 ft 324 kts 264°
2026-04-26 17:10 41.01864 30.55350 15952 ft 315 kts 274°
2026-04-26 17:10 41.01944 30.52479 15695 ft 310 kts 274°
2026-04-26 17:11 41.02024 30.49651 15442 ft 305 kts 274°
2026-04-26 17:11 41.02101 30.46854 15197 ft 303 kts 274°
2026-04-26 17:11 41.02175 30.44110 14955 ft 302 kts 274°
2026-04-26 17:11 41.02248 30.41336 14707 ft 300 kts 274°
2026-04-26 17:12 41.02397 30.35814 14240 ft 299 kts 274°
2026-04-26 17:12 41.02475 30.33068 14003 ft 298 kts 274°
2026-04-26 17:13 41.02620 30.27597 13500 ft 297 kts 274°
2026-04-26 17:13 41.02686 30.24869 13235 ft 296 kts 274°
2026-04-26 17:13 41.02816 30.19474 12667 ft 291 kts 274°
2026-04-26 17:14 41.02885 30.16802 12308 ft 290 kts 274°
2026-04-26 17:14 41.03016 30.11495 11569 ft 290 kts 273°
2026-04-26 17:14 41.03080 30.08826 11189 ft 290 kts 273°
2026-04-26 17:15 41.03209 30.03499 10485 ft 287 kts 273°
2026-04-26 17:15 41.03271 30.00858 10115 ft 287 kts 273°
2026-04-26 17:15 41.03332 29.98230 9751 ft 286 kts 273°
2026-04-26 17:16 41.03394 29.95613 9371 ft 285 kts 273°
2026-04-26 17:16 41.03455 29.93013 9079 ft 280 kts 274°
2026-04-26 17:16 41.03516 29.90430 8594 ft 282 kts 274°
2026-04-26 17:16 41.03576 29.87844 8272 ft 279 kts 274°
2026-04-26 17:17 41.03634 29.85289 7881 ft 278 kts 273°
2026-04-26 17:17 41.03688 29.82776 7520 ft 275 kts 273°
2026-04-26 17:17 41.03741 29.80249 7149 ft 273 kts 273°
2026-04-26 17:17 41.03794 29.77739 6783 ft 272 kts 273°
2026-04-26 17:18 41.03846 29.75262 6511 ft 267 kts 273°
2026-04-26 17:18 41.03897 29.72810 6144 ft 265 kts 273°
2026-04-26 17:18 41.03911 29.70379 5756 ft 264 kts 266°
2026-04-26 17:18 41.03430 29.68050 5416 ft 263 kts 247°
2026-04-26 17:19 41.01855 29.63729 4814 ft 253 kts 246°
2026-04-26 17:19 41.01107 29.61676 4685 ft 242 kts 246°
2026-04-26 17:19 41.00393 29.59716 4564 ft 231 kts 246°
2026-04-26 17:20 40.99706 29.57831 4428 ft 224 kts 247°
2026-04-26 17:20 40.99488 29.57232 4387 ft 221 kts 247°
2026-04-26 17:20 40.98409 29.54271 4185 ft 209 kts 247°
2026-04-26 17:20 40.97787 29.52568 4040 ft 203 kts 247°
2026-04-26 17:21 40.97182 29.50911 3766 ft 197 kts 247°
2026-04-26 17:21 40.96592 29.49299 3471 ft 193 kts 247°
2026-04-26 17:21 40.96014 29.47718 3172 ft 189 kts 247°
2026-04-26 17:21 40.95448 29.46170 2885 ft 183 kts 247°
2026-04-26 17:22 40.94912 29.44710 2633 ft 170 kts 247°
2026-04-26 17:22 40.94413 29.43347 2372 ft 160 kts 247°
2026-04-26 17:22 40.93950 29.42083 2118 ft 146 kts 246°
2026-04-26 17:22 40.93517 29.40901 1899 ft 140 kts 247°
2026-04-26 17:23 40.93099 29.39751 1685 ft 138 kts 246°
2026-04-26 17:23 40.92686 29.38624 1481 ft 137 kts 246°
2026-04-26 17:23 40.92269 29.37485 1251 ft 138 kts 246°
2026-04-26 17:23 40.91850 29.36340 1055 ft 139 kts 244°
2026-04-26 17:24 40.91429 29.35188 838 ft 139 kts 243°
2026-04-26 17:24 40.91007 29.34037 649 ft 139 kts 243°
2026-04-26 17:24 40.90582 29.32888 433 ft 139 kts 242°
2026-04-26 17:24 40.90161 29.31759 315 ft 130 kts 242°
2026-04-26 17:25 40.89831 29.30863 311 ft 84 kts 244°
2026-04-26 17:25 40.89653 29.30371 312 ft 35 kts 252°
2026-04-26 17:25 40.89629 29.30160 308 ft 19 kts 269°
2026-04-26 17:25 40.89634 29.30034 310 ft 9 kts 274°
2026-04-26 17:26 40.89639 29.29952 307 ft 8 kts 280°
2026-04-26 17:26 40.89677 29.29911 307 ft 7 kts 349°
2026-04-26 17:26 40.89703 29.29937 307 ft 5 kts 63°
2026-04-26 17:26 40.89728 29.30004 310 ft 15 kts 63°
2026-04-26 17:27 40.89788 29.30168 309 ft 24 kts 64°
2026-04-26 17:27 40.89874 29.30402 310 ft 31 kts 64°
2026-04-26 17:27 40.89937 29.30570 310 ft 31 kts 64°
2026-04-26 17:27 40.90033 29.30832 311 ft 32 kts 64°
2026-04-26 17:28 40.90132 29.31101 311 ft 33 kts 64°
2026-04-26 17:28 40.90229 29.31366 310 ft 31 kts 64°
2026-04-26 17:28 40.90316 29.31496 311 ft 15 kts 342°
2026-04-26 17:28 40.90412 29.31437 311 ft 15 kts 343°
2026-04-26 17:29 40.90482 29.31525 310 ft 16 kts 64°
2026-04-26 17:29 40.90514 29.31614 311 ft 16 kts 65°
2026-04-26 17:29 40.90577 29.31768 310 ft 8 kts 25°
2026-04-26 17:29 40.90636 29.31738 311 ft 3 kts 334°
2026-04-26 17:30 40.90643 29.31733 311 ft 1 kts 334°
2026-04-26 17:30 40.90646 29.31731 311 ft 0 kts 334°